Weather History for Carmi, IL

Change the Weather History Date:

Tuesday, February 19, 2013

  Actual Average (KEVV) Record (KEVV)
Temperature  
Mean Temperature 34 °F 38 °F  
Max Temperature 41 °F 47 °F 73 °F (1994)
Min Temperature 27 °F 28 °F -3 °F (1979)
Degree Days  
Heating Degree Days 31 27  
Month to date heating degree days 564  
Since 1 July heating degree days 3343  
Cooling Degree Days 0 0  
Month to date cooling degree days 0  
Year to date cooling degree days 0  
Moisture  
Dew Point 24 °F    
Average Humidity 67    
Maximum Humidity 86    
Minimum Humidity 49    
Precipitation  
Precipitation 0.00 in 0.11 in 0.94 in (1952)
Month to date precipitation 2.18  
Year to date precipitation 5.28  
Snow  
Snow 0.00 in 0.10 in 0.40 in (1977)
Month to date snowfall 2.8  
Since 1 July snowfall 9.7  
Snow Depth -    
Sea Level Pressure  
Sea Level Pressure 30.08 in    
Wind  
Wind Speed 18 mph (WNW)    
Max Wind Speed 28 mph    
Max Gust Speed 37 mph    
Visibility 10 miles    
Events      
T = Trace of Precipitation, MM = Missing Value Source: NWS Daily Summary

Daily Weather History Graph

Daily Weather History Graph

Search for Another Location

Airport:

Trip Planner

Search our weather history database for the weather conditions in past years. The results will help you decide how hot, cold, wet, or windy it might be!

Date:

Astronomy

Feb. 19, 2013 Rise Set
Actual Time 6:37 AM CST 5:35 PM CST
Civil Twilight 6:10 AM CST 6:02 PM CST
Nautical Twilight 5:39 AM CST 6:33 PM CST
Astronomical Twilight 5:09 AM CST 7:03 PM CST
Moon 12:09 PM CST (2/19) 2:06 AM CST (2/19)
Length of Visible Light 11h 51m
Length of Day
10h 58m
Waxing Gibbous, 67% of the Moon is Illuminated
Feb 19
Waxing Gibbous
Feb 25
Full
Mar 4
Last Quarter
Mar 11
New
Mar 19
First Quarter

Hourly Weather History & Observations

Time (CST) Temp. Windchill Dew Point Humidity Pressure Visibility Wind Dir Wind Speed Gust Speed Precip Events Conditions
12:15 AM 41.4 °F 33.3 °F 37.4 °F 86% 29.84 in 10.0 mi WNW 16.1 mph 28.8 mph N/A   Overcast
12:35 AM 41.4 °F 33.0 °F 37.4 °F 86% 29.85 in 10.0 mi West 17.3 mph 23.0 mph N/A   Overcast
12:55 AM 41.2 °F 31.1 °F 36.0 °F 82% 29.86 in 10.0 mi West 24.2 mph 28.8 mph N/A   Overcast
1:15 AM 40.6 °F 30.7 °F 35.6 °F 82% 29.87 in 10.0 mi West 23.0 mph 34.5 mph N/A   Overcast
1:35 AM 39.4 °F 28.1 °F 33.1 °F 78% 29.89 in 10.0 mi West 27.6 mph 34.5 mph N/A   Overcast
1:55 AM 37.6 °F 26.9 °F 32.0 °F 80% 29.89 in 10.0 mi West 21.9 mph 31.1 mph N/A   Mostly Cloudy
2:15 AM 37.4 °F 26.1 °F 29.8 °F 74% 29.90 in 10.0 mi WNW 24.2 mph 36.8 mph N/A   Overcast
2:35 AM 37.0 °F 26.4 °F 30.2 °F 76% 29.91 in 10.0 mi West 20.7 mph 31.1 mph N/A   Overcast
2:55 AM 36.9 °F 28.2 °F 30.6 °F 78% 29.92 in 10.0 mi West 13.8 mph 19.6 mph N/A   Overcast
3:15 AM 36.9 °F 27.5 °F 31.1 °F 80% 29.92 in 10.0 mi West 16.1 mph 19.6 mph N/A   Overcast
3:35 AM 36.5 °F 26.3 °F 29.8 °F 77% 29.93 in 10.0 mi West 18.4 mph 26.5 mph N/A   Overcast
3:55 AM 35.1 °F 23.8 °F 26.8 °F 72% 29.94 in 10.0 mi West 20.7 mph 31.1 mph N/A   Mostly Cloudy
4:15 AM 34.0 °F 23.8 °F 27.1 °F 76% 29.94 in 10.0 mi West 16.1 mph - N/A   Scattered Clouds
4:35 AM 33.8 °F 25.3 °F 27.3 °F 77% 29.95 in 10.0 mi West 11.5 mph 18.4 mph N/A   Scattered Clouds
4:55 AM 33.4 °F 23.5 °F 27.0 °F 77% 29.95 in 10.0 mi West 15.0 mph 21.9 mph N/A   Scattered Clouds
5:15 AM 33.3 °F 21.5 °F 25.9 °F 74% 29.96 in 10.0 mi West 20.7 mph 26.5 mph N/A   Clear
5:35 AM 32.9 °F 23.2 °F 26.8 °F 78% 29.97 in 10.0 mi West 13.8 mph 20.7 mph N/A   Scattered Clouds
5:55 AM 32.7 °F 23.4 °F 26.8 °F 79% 29.97 in 10.0 mi West 12.7 mph 20.7 mph N/A   Scattered Clouds
6:15 AM 32.7 °F 20.7 °F 25.7 °F 75% 29.99 in 10.0 mi West 20.7 mph 26.5 mph N/A   Scattered Clouds
6:35 AM 32.0 °F 18.9 °F 24.3 °F 73% 30.00 in 10.0 mi West 24.2 mph 32.2 mph N/A   Scattered Clouds
6:55 AM 32.0 °F 21.6 °F 24.6 °F 74% 30.00 in 10.0 mi West 15.0 mph 21.9 mph N/A   Clear
7:15 AM 32.0 °F 20.8 °F 24.4 °F 74% 30.02 in 10.0 mi West 17.3 mph 26.5 mph N/A   Clear
7:35 AM 32.4 °F 21.7 °F 24.1 °F 72% 30.03 in 10.0 mi West 16.1 mph 24.2 mph N/A   Clear
7:55 AM 32.5 °F 21.5 °F 23.9 °F 70% 30.04 in 10.0 mi West 17.3 mph 26.5 mph N/A   Clear
8:15 AM 32.9 °F 22.0 °F 24.1 °F 70% 30.04 in 10.0 mi West 17.3 mph 24.2 mph N/A   Scattered Clouds
8:35 AM 32.9 °F 21.0 °F 23.9 °F 69% 30.05 in 10.0 mi West 20.7 mph 25.3 mph N/A   Scattered Clouds
8:55 AM 33.1 °F 21.2 °F 23.4 °F 67% 30.05 in 10.0 mi West 20.7 mph 26.5 mph N/A   Clear
9:15 AM 33.1 °F 21.9 °F 23.0 °F 66% 30.06 in 10.0 mi West 18.4 mph 26.5 mph N/A   Clear
9:35 AM 33.8 °F 22.2 °F 22.5 °F 63% 30.06 in 10.0 mi West 20.7 mph 26.5 mph N/A   Clear
9:55 AM 34.7 °F 23.1 °F 23.4 °F 63% 30.07 in 10.0 mi West 21.9 mph 27.6 mph N/A   Clear
10:15 AM 35.4 °F 24.3 °F 23.4 °F 62% 30.08 in 10.0 mi West 20.7 mph 28.8 mph N/A   Clear
10:35 AM 35.2 °F 24.4 °F 23.4 °F 62% 30.09 in 10.0 mi West 19.6 mph 25.3 mph N/A   Scattered Clouds
10:55 AM 35.8 °F 24.5 °F 24.1 °F 62% 30.09 in 10.0 mi West 21.9 mph 27.6 mph N/A   Scattered Clouds
11:15 AM 35.8 °F 24.5 °F 23.5 °F 61% 30.10 in 10.0 mi West 21.9 mph 34.5 mph N/A   Scattered Clouds
11:35 AM 36.3 °F 26.1 °F 23.7 °F 60% 30.10 in 10.0 mi WNW 18.4 mph - N/A   Clear
11:55 AM 36.5 °F 25.2 °F 21.4 °F 54% 30.10 in 10.0 mi West 23.0 mph 34.5 mph N/A   Clear
12:15 PM 37.6 °F 26.9 °F 24.1 °F 58% 30.11 in 10.0 mi West 21.9 mph 27.6 mph N/A   Clear
12:35 PM 36.7 °F 25.7 °F 23.7 °F 59% 30.11 in 10.0 mi West 21.9 mph 27.6 mph N/A   Scattered Clouds
12:55 PM 37.9 °F 27.9 °F 22.8 °F 55% 30.11 in 10.0 mi West 19.6 mph 29.9 mph N/A   Scattered Clouds
1:15 PM 37.2 °F 27.0 °F 23.5 °F 58% 30.11 in 10.0 mi West 19.6 mph 27.6 mph N/A   Scattered Clouds
1:35 PM 37.2 °F 27.3 °F 23.0 °F 56% 30.11 in 10.0 mi West 18.4 mph 27.6 mph N/A   Scattered Clouds
1:55 PM 38.3 °F 28.1 °F 22.3 °F 53% 30.12 in 10.0 mi West 20.7 mph 25.3 mph N/A   Scattered Clouds
2:15 PM 38.5 °F 29.2 °F 21.7 °F 51% 30.12 in 10.0 mi West 17.3 mph 29.9 mph N/A   Scattered Clouds
2:35 PM 39.0 °F 28.3 °F 22.1 °F 51% 30.12 in 10.0 mi West 24.2 mph 29.9 mph N/A   Clear
2:55 PM 39.0 °F 29.6 °F 22.8 °F 52% 30.13 in 10.0 mi West 18.4 mph 23.0 mph N/A   Clear
3:15 PM 38.8 °F 29.4 °F 22.1 °F 51% 30.13 in 10.0 mi West 18.4 mph 25.3 mph N/A   Clear
3:35 PM 39.2 °F 28.7 °F 22.1 °F 50% 30.14 in 10.0 mi West 23.0 mph 26.5 mph N/A   Clear
3:55 PM 38.8 °F 29.1 °F 21.7 °F 50% 30.14 in 10.0 mi WNW 19.6 mph 25.3 mph N/A   Clear
4:15 PM 39.0 °F 29.3 °F 21.2 °F 49% 30.15 in 10.0 mi West 19.6 mph 26.5 mph N/A   Clear
4:35 PM 38.3 °F 29.0 °F 22.5 °F 53% 30.15 in 10.0 mi WNW 17.3 mph 26.5 mph N/A   Clear
4:55 PM 37.4 °F 27.8 °F 23.2 °F 57% 30.16 in 10.0 mi WNW 17.3 mph 23.0 mph N/A   Clear
5:15 PM 36.1 °F 27.7 °F 23.4 °F 60% 30.17 in 10.0 mi WNW 12.7 mph 18.4 mph N/A   Clear
5:35 PM 34.7 °F 26.4 °F 23.2 °F 63% 30.18 in 10.0 mi NW 11.5 mph - N/A   Clear
6:35 PM 32.0 °F 24.2 °F 22.1 °F 67% 30.20 in 10.0 mi NW 9.2 mph - N/A   Clear
6:55 PM 32.0 °F 23.6 °F 20.5 °F 63% 30.20 in 10.0 mi NW 10.4 mph - N/A   Clear
7:55 PM 30.7 °F 21.4 °F 18.7 °F 61% 30.21 in 10.0 mi NW 11.5 mph - N/A   Clear
8:15 PM 30.0 °F 21.7 °F 19.0 °F 64% 30.22 in 10.0 mi NW 9.2 mph - N/A   Clear
8:35 PM 29.3 °F 20.8 °F 20.1 °F 69% 30.23 in 10.0 mi NW 9.2 mph - N/A   Clear
8:55 PM 28.9 °F 21.9 °F 20.5 °F 71% 30.24 in 10.0 mi NW 6.9 mph - N/A   Clear
9:15 PM 28.4 °F 20.4 °F 20.3 °F 72% 30.25 in 10.0 mi NW 8.1 mph - N/A   Clear
9:35 PM 28.4 °F 20.4 °F 19.9 °F 71% 30.25 in 10.0 mi NW 8.1 mph - N/A   Clear
9:55 PM 28.2 °F 19.5 °F 19.9 °F 71% 30.26 in 10.0 mi WNW 9.2 mph - N/A   Clear
10:15 PM 28.4 °F 19.1 °F 19.4 °F 69% 30.27 in 10.0 mi WNW 10.4 mph - N/A   Clear
10:35 PM 28.9 °F 18.2 °F 18.7 °F 66% 30.27 in 10.0 mi WNW 13.8 mph 19.6 mph N/A   Clear
10:55 PM 28.9 °F 18.6 °F 19.2 °F 67% 30.27 in 10.0 mi WNW 12.7 mph - N/A   Clear
11:15 PM 28.2 °F 20.2 °F 20.1 °F 72% 30.27 in 10.0 mi WNW 8.1 mph - N/A   Clear
11:35 PM 27.9 °F 18.4 °F 20.3 °F 73% 30.27 in 10.0 mi WNW 10.4 mph - N/A   Clear
11:55 PM 27.9 °F 17.8 °F 18.7 °F 68% 30.27 in 10.0 mi WNW 11.5 mph - N/A   Clear